| time (UTC) | temp C | wind direction | speed KPH | gust KPH | rain 1hr cm | rain 24hr cm | rain mn cm | humidity % | barometer mb |
| 20260507114420 | 3 | 0 | 8.0 | 19.3 | 0.00 | 0.20 | 0.00 | 84 | 1016.3 |
| 20260507114409 | 3 | 0 | 9.7 | 17.7 | 0.00 | 0.23 | 0.00 | 85 | 1016.3 |
| 20260507114022 | 3 | 0 | 9.7 | 17.7 | 0.00 | 0.23 | 0.00 | 85 | 1016.3 |
| 20260507113406 | 3 | 0 | 9.7 | 19.3 | 0.00 | 0.23 | 0.00 | 85 | 1016.4 |
| 20260507112904 | 3 | 0 | 8.0 | 19.3 | 0.00 | 0.23 | 0.00 | 85 | 1016.4 |
| 20260507112336 | 3 | 0 | 9.7 | 20.9 | 0.00 | 0.25 | 0.00 | 86 | 1016.4 |
| 20260507111811 | 3 | 0 | 8.0 | 20.9 | 0.00 | 0.25 | 0.00 | 86 | 1016.4 |
| 20260507111305 | 3 | 0 | 8.0 | 16.1 | 0.00 | 0.28 | 0.00 | 86 | 1016.4 |
| 20260507110801 | 3 | 0 | 8.0 | 16.1 | 0.00 | 0.28 | 0.00 | 86 | 1016.4 |
| 20260507110523 | 3 | 0 | 8.0 | 16.1 | 0.00 | 0.30 | 0.00 | 86 | 1016.5 |
| 20260507110405 | 3 | 0 | 8.0 | 16.1 | 0.00 | 0.30 | 0.00 | 86 | 1016.5 |
| 20260507105734 | 3 | 0 | 8.0 | 24.1 | 0.00 | 0.30 | 0.00 | 86 | 1016.5 |
| 20260507105230 | 3 | 0 | 8.0 | 24.1 | 0.00 | 0.33 | 0.00 | 87 | 1016.6 |
| 20260507104923 | 3 | 0 | 8.0 | 19.3 | 0.00 | 0.33 | 0.00 | 87 | 1016.8 |
| 20260507104807 | 3 | 0 | 8.0 | 19.3 | 0.00 | 0.33 | 0.00 | 87 | 1016.8 |
| 20260507104407 | 3 | 0 | 9.7 | 19.3 | 0.00 | 0.36 | 0.00 | 87 | 1016.9 |
| 20260507104242 | 3 | 0 | 9.7 | 19.3 | 0.00 | 0.36 | 0.00 | 87 | 1016.9 |
| 20260507103639 | 3 | 0 | 9.7 | 19.3 | 0.00 | 0.38 | 0.00 | 87 | 1017.0 |
| 20260507103128 | 3 | 0 | 9.7 | 17.7 | 0.00 | 0.38 | 0.00 | 87 | 1017.0 |
| 20260507102844 | 3 | 0 | 9.7 | 22.5 | 0.00 | 0.41 | 0.00 | 87 | 1017.0 |
| 20260507102720 | 3 | 0 | 9.7 | 22.5 | 0.00 | 0.41 | 0.00 | 87 | 1017.0 |
| 20260507102052 | 3 | 0 | 9.7 | 22.5 | 0.00 | 0.41 | 0.00 | 87 | 1017.1 |
| 20260507101527 | 3 | 0 | 9.7 | 20.9 | 0.00 | 0.41 | 0.00 | 87 | 1017.2 |
| 20260507101232 | 3 | 0 | 9.7 | 19.3 | 0.00 | 0.41 | 0.00 | 87 | 1017.4 |
| 20260507101114 | 3 | 0 | 9.7 | 19.3 | 0.00 | 0.41 | 0.00 | 87 | 1017.4 |
| 20260507100459 | 3 | 0 | 9.7 | 17.7 | 0.00 | 0.41 | 0.00 | 87 | 1017.4 |
| 20260507100005 | 3 | 0 | 9.7 | 20.9 | 0.00 | 0.41 | 0.00 | 86 | 1017.4 |
| 20260507095459 | 3 | 0 | 9.7 | 20.9 | 0.00 | 0.43 | 0.00 | 86 | 1017.5 |
| 20260507095000 | 3 | 0 | 9.7 | 20.9 | 0.00 | 0.43 | 0.00 | 86 | 1017.5 |
| 20260507094446 | 3 | 0 | 9.7 | 20.9 | 0.00 | 0.43 | 0.00 | 86 | 1017.5 |
| 20260507093943 | 3 | 0 | 9.7 | 20.9 | 0.00 | 0.46 | 0.00 | 86 | 1017.6 |
| 20260507093442 | 3 | 0 | 11.3 | 19.3 | 0.00 | 0.46 | 0.00 | 86 | 1017.5 |
| 20260507092931 | 3 | 0 | 9.7 | 20.9 | 0.00 | 0.46 | 0.00 | 86 | 1017.6 |
| 20260507092412 | 3 | 0 | 8.0 | 20.9 | 0.00 | 0.46 | 0.00 | 87 | 1017.7 |
| 20260507091915 | 3 | 0 | 8.0 | 19.3 | 0.00 | 0.48 | 0.00 | 87 | 1017.8 |
| 20260507091413 | 3 | 0 | 8.0 | 17.7 | 0.00 | 0.48 | 0.00 | 87 | 1017.8 |
| 20260507090914 | 3 | 0 | 6.4 | 17.7 | 0.00 | 0.48 | 0.00 | 87 | 1017.9 |
| 20260507090357 | 3 | 0 | 8.0 | 17.7 | 0.00 | 0.48 | 0.00 | 87 | 1018.0 |
| 20260507085836 | 2 | 0 | 8.0 | 17.7 | 0.00 | 0.48 | 0.00 | 88 | 1018.0 |
| 20260507085338 | 2 | 0 | 8.0 | 14.5 | 0.00 | 0.48 | 0.00 | 88 | 1018.1 |
| 20260507084816 | 2 | 0 | 8.0 | 14.5 | 0.00 | 0.48 | 0.00 | 88 | 1018.2 |
| 20260507084304 | 2 | 0 | 8.0 | 17.7 | 0.00 | 0.48 | 0.00 | 88 | 1018.1 |
| 20260507084106 | 2 | 0 | 8.0 | 17.7 | 0.00 | 0.48 | 0.00 | 88 | 1018.2 |
| 20260507084035 | 2 | 0 | 8.0 | 17.7 | 0.00 | 0.48 | 0.00 | 88 | 1018.2 |
| 20260507083213 | 2 | 0 | 8.0 | 17.7 | 0.00 | 0.48 | 0.00 | 89 | 1018.3 |
| 20260507082655 | 2 | 0 | 8.0 | 17.7 | 0.00 | 0.48 | 0.00 | 89 | 1018.4 |
| 20260507082532 | 2 | 0 | 8.0 | 17.7 | 0.00 | 0.48 | 0.00 | 89 | 1018.6 |
| 20260507082444 | 2 | 0 | 8.0 | 17.7 | 0.00 | 0.48 | 0.00 | 89 | 1018.6 |
| 20260507082020 | 2 | 0 | 8.0 | 17.7 | 0.00 | 0.48 | 0.00 | 89 | 1018.6 |
| 20260507081948 | 2 | 0 | 8.0 | 17.7 | 0.00 | 0.48 | 0.00 | 89 | 1018.6 |
| 20260507081130 | 2 | 0 | 8.0 | 19.3 | 0.00 | 0.48 | 0.00 | 89 | 1018.7 |
| 20260507080634 | 2 | 0 | 6.4 | 19.3 | 0.00 | 0.48 | 0.00 | 89 | 1018.8 |
| 20260507080127 | 2 | 0 | 6.4 | 14.5 | 0.00 | 0.48 | 0.00 | 89 | 1018.8 |
| 20260507075602 | 2 | 0 | 4.8 | 14.5 | 0.00 | 0.48 | 0.00 | 89 | 1018.9 |
| 20260507075034 | 2 | 0 | 6.4 | 12.9 | 0.00 | 0.48 | 0.00 | 90 | 1018.9 |
| 20260507074528 | 2 | 0 | 6.4 | 12.9 | 0.00 | 0.48 | 0.00 | 90 | 1019.0 |
| 20260507074002 | 2 | 0 | 4.8 | 12.9 | 0.00 | 0.48 | 0.00 | 90 | 1019.0 |
| 20260507073721 | 2 | 0 | 6.4 | 12.9 | 0.00 | 0.51 | 0.00 | 89 | 1019.2 |
| 20260507073553 | 2 | 0 | 6.4 | 12.9 | 0.00 | 0.51 | 0.00 | 89 | 1019.2 |
| 20260507073428 | 2 | 0 | 6.4 | 16.1 | 0.00 | 0.51 | 0.00 | 89 | 1019.3 |
| 20260507073354 | 2 | 0 | 6.4 | 16.1 | 0.00 | 0.51 | 0.00 | 89 | 1019.3 |
| 20260507072347 | 2 | 0 | 4.8 | 16.1 | 0.00 | 0.51 | 0.00 | 89 | 1019.3 |
| 20260507071823 | 2 | 0 | 4.8 | 12.9 | 0.00 | 0.51 | 0.00 | 89 | 1019.4 |
| 20260507071322 | 2 | 0 | 4.8 | 12.9 | 0.00 | 0.51 | 0.00 | 90 | 1019.5 |
| 20260507070824 | 2 | 0 | 4.8 | 14.5 | 0.00 | 0.51 | 0.00 | 90 | 1019.7 |
| 20260507070321 | 2 | 0 | 4.8 | 14.5 | 0.00 | 0.51 | 0.00 | 90 | 1019.5 |
| 20260507065816 | 2 | 0 | 6.4 | 17.7 | 0.00 | 0.51 | 0.00 | 89 | 1019.7 |
| 20260507065314 | 2 | 0 | 6.4 | 9.7 | 0.00 | 0.53 | 0.00 | 89 | 1019.8 |
| 20260507064849 | 2 | 0 | 4.8 | 9.7 | 0.00 | 0.53 | 0.00 | 89 | 1019.9 |
| 20260507064807 | 2 | 0 | 4.8 | 9.7 | 0.00 | 0.53 | 0.00 | 89 | 1019.8 |
| 20260507064536 | 2 | 0 | 4.8 | 9.7 | 0.00 | 0.53 | 0.00 | 89 | 1019.9 |
| 20260507063737 | 3 | 0 | 4.8 | 9.7 | 0.00 | 0.53 | 0.00 | 89 | 1020.0 |
| 20260507063223 | 3 | 0 | 4.8 | 12.9 | 0.00 | 0.53 | 0.00 | 89 | 1019.9 |
| 20260507062721 | 3 | 0 | 6.4 | 14.5 | 0.00 | 0.56 | 0.00 | 89 | 1020.1 |
| 20260507062208 | 3 | 0 | 6.4 | 17.7 | 0.00 | 0.56 | 0.00 | 90 | 1020.3 |
| 20260507061710 | 3 | 0 | 4.8 | 17.7 | 0.00 | 0.56 | 0.00 | 90 | 1020.3 |
| 20260507061412 | 3 | 0 | 4.8 | 9.7 | 0.00 | 0.56 | 0.00 | 90 | 1020.4 |
| 20260507061250 | 3 | 0 | 4.8 | 9.7 | 0.00 | 0.56 | 0.00 | 90 | 1020.4 |
| 20260507060640 | 3 | 0 | 4.8 | 14.5 | 0.00 | 0.56 | 0.00 | 90 | 1020.4 |
| 20260507060115 | 3 | 0 | 6.4 | 14.5 | 0.00 | 0.58 | 0.00 | 90 | 1020.3 |
| 20260507055546 | 3 | 0 | 6.4 | 14.5 | 0.00 | 0.58 | 0.00 | 90 | 1020.4 |
| 20260507055020 | 3 | 0 | 4.8 | 12.9 | 0.00 | 0.58 | 0.00 | 90 | 1020.4 |
| 20260507054516 | 3 | 0 | 4.8 | 9.7 | 0.00 | 0.61 | 0.00 | 90 | 1020.4 |
| 20260507054018 | 3 | 0 | 4.8 | 9.7 | 0.00 | 0.61 | 0.00 | 90 | 1020.5 |
| 20260507053514 | 3 | 0 | 3.2 | 9.7 | 0.00 | 0.64 | 0.00 | 89 | 1020.5 |
| 20260507052945 | 3 | 0 | 3.2 | 9.7 | 0.00 | 0.66 | 0.00 | 89 | 1020.4 |
| 20260507052419 | 3 | 0 | 3.2 | 12.9 | 0.00 | 0.66 | 0.00 | 89 | 1020.3 |
| 20260507051916 | 3 | 0 | 4.8 | 12.9 | 0.00 | 0.66 | 0.00 | 89 | 1020.3 |
| 20260507051349 | 3 | 0 | 4.8 | 9.7 | 0.00 | 0.66 | 0.00 | 89 | 1020.4 |
| 20260507050843 | 3 | 0 | 3.2 | 9.7 | 0.00 | 0.69 | 0.00 | 89 | 1020.4 |
| 20260507050347 | 3 | 0 | 3.2 | 9.7 | 0.00 | 0.69 | 0.00 | 89 | 1020.6 |
| 20260507045835 | 3 | 0 | 4.8 | 9.7 | 0.00 | 0.69 | 0.69 | 89 | 1020.6 |
| 20260507045335 | 3 | 0 | 3.2 | 9.7 | 0.00 | 0.71 | 0.69 | 89 | 1020.8 |
| 20260507045138 | 3 | 0 | 4.8 | 12.9 | 0.00 | 0.74 | 0.69 | 88 | 1020.8 |
| 20260507045102 | 3 | 0 | 4.8 | 12.9 | 0.00 | 0.74 | 0.69 | 88 | 1020.8 |
| 20260507044306 | 3 | 0 | 4.8 | 14.5 | 0.00 | 0.74 | 0.69 | 88 | 1021.0 |
| 20260507043738 | 3 | 0 | 4.8 | 14.5 | 0.00 | 0.74 | 0.69 | 88 | 1020.9 |
| 20260507043235 | 3 | 0 | 3.2 | 14.5 | 0.00 | 0.76 | 0.69 | 88 | 1021.0 |
| 20260507042709 | 3 | 0 | 3.2 | 9.7 | 0.00 | 0.76 | 0.69 | 88 | 1021.1 |
| 20260507042157 | 3 | 0 | 3.2 | 9.7 | 0.00 | 0.76 | 0.69 | 88 | 1021.0 |
| 20260507041647 | 3 | 0 | 3.2 | 9.7 | 0.00 | 0.76 | 0.69 | 87 | 1021.1 |
| 20260507041122 | 3 | 0 | 3.2 | 8.0 | 0.00 | 0.79 | 0.69 | 87 | 1021.1 |
| 20260507040618 | 4 | 0 | 3.2 | 8.0 | 0.00 | 0.79 | 0.69 | 87 | 1021.1 |
| 20260507040117 | 4 | 0 | 3.2 | 8.0 | 0.00 | 0.79 | 0.69 | 87 | 1021.1 |
| 20260507035551 | 4 | 0 | 3.2 | 8.0 | 0.00 | 0.81 | 0.69 | 87 | 1021.1 |
| 20260507035045 | 4 | 0 | 3.2 | 8.0 | 0.00 | 0.81 | 0.69 | 87 | 1021.2 |
| 20260507034518 | 4 | 0 | 3.2 | 8.0 | 0.00 | 0.81 | 0.69 | 86 | 1021.1 |
| 20260507034239 | 4 | 0 | 4.8 | 8.0 | 0.00 | 0.81 | 0.69 | 86 | 1021.1 |
| 20260507034119 | 4 | 0 | 4.8 | 8.0 | 0.00 | 0.81 | 0.69 | 86 | 1021.1 |
| 20260507033449 | 4 | 0 | 3.2 | 12.9 | 0.00 | 0.84 | 0.69 | 86 | 1021.1 |
| 20260507032948 | 4 | 0 | 3.2 | 8.0 | 0.00 | 0.84 | 0.69 | 86 | 1021.1 |
| 20260507032436 | 4 | 0 | 3.2 | 6.4 | 0.00 | 0.86 | 0.69 | 86 | 1021.0 |
| 20260507031930 | 5 | 0 | 3.2 | 9.7 | 0.00 | 0.89 | 0.69 | 85 | 1021.1 |
| 20260507031634 | 5 | 0 | 3.2 | 9.7 | 0.00 | 0.91 | 0.69 | 85 | 1021.1 |
| 20260507031509 | 5 | 0 | 3.2 | 9.7 | 0.00 | 0.91 | 0.69 | 85 | 1021.1 |
| 20260507031205 | 5 | 0 | 4.8 | 14.5 | 0.00 | 0.94 | 0.69 | 85 | 1021.1 |
| 20260507030900 | 5 | 0 | 3.2 | 14.5 | 0.00 | 0.91 | 0.69 | 85 | 1021.1 |
| 20260507030640 | 5 | 0 | 4.8 | 14.5 | 0.00 | 0.94 | 0.69 | 85 | 1021.1 |
| 20260507025851 | 5 | 0 | 3.2 | 9.7 | 0.00 | 0.94 | 0.69 | 84 | 1021.1 |
| 20260507025350 | 5 | 0 | 3.2 | 6.4 | 0.00 | 0.94 | 0.69 | 84 | 1021.0 |
| 20260507024845 | 5 | 0 | 3.2 | 8.0 | 0.00 | 0.94 | 0.69 | 84 | 1021.0 |
| 20260507024341 | 6 | 0 | 3.2 | 8.0 | 0.00 | 0.94 | 0.69 | 83 | 1021.1 |
| 20260507024057 | 6 | 0 | 3.2 | 6.4 | 0.00 | 0.97 | 0.69 | 83 | 1020.9 |
| 20260507023941 | 6 | 0 | 3.2 | 6.4 | 0.00 | 0.97 | 0.69 | 83 | 1020.9 |
| 20260507023312 | 6 | 0 | 3.2 | 6.4 | 0.00 | 0.97 | 0.69 | 83 | 1020.9 |
| 20260507022745 | 6 | 0 | 3.2 | 6.4 | 0.00 | 0.99 | 0.69 | 83 | 1020.6 |
| 20260507022241 | 6 | 0 | 3.2 | 6.4 | 0.00 | 0.99 | 0.69 | 82 | 1020.5 |
| 20260507021720 | 6 | 0 | 3.2 | 6.4 | 0.00 | 0.99 | 0.69 | 82 | 1020.6 |
| 20260507021216 | 6 | 0 | 1.6 | 6.4 | 0.00 | 0.99 | 0.69 | 82 | 1020.6 |
| 20260507020657 | 7 | 0 | 1.6 | 3.2 | 0.00 | 1.02 | 0.69 | 81 | 1020.6 |
| 20260507020147 | 7 | 0 | 1.6 | 4.8 | 0.00 | 1.02 | 0.69 | 81 | 1020.6 |
| 20260507015635 | 7 | 0 | 3.2 | 4.8 | 0.00 | 1.02 | 0.69 | 81 | 1020.5 |
| 20260507015139 | 7 | 0 | 3.2 | 6.4 | 0.00 | 1.04 | 0.69 | 80 | 1020.6 |
| 20260507014615 | 7 | 0 | 3.2 | 8.0 | 0.00 | 1.04 | 0.69 | 80 | 1020.5 |
| 20260507014113 | 7 | 0 | 3.2 | 8.0 | 0.00 | 1.07 | 0.69 | 79 | 1020.8 |
| 20260507013547 | 7 | 0 | 4.8 | 12.9 | 0.00 | 1.07 | 0.69 | 79 | 1020.6 |
| 20260507013045 | 7 | 0 | 4.8 | 12.9 | 0.00 | 1.07 | 0.69 | 78 | 1020.6 |
| 20260507012543 | 7 | 0 | 4.8 | 9.7 | 0.00 | 1.07 | 0.69 | 78 | 1020.6 |
| 20260507012024 | 7 | 0 | 4.8 | 16.1 | 0.00 | 1.07 | 0.69 | 77 | 1020.6 |
| 20260507011519 | 7 | 0 | 6.4 | 16.1 | 0.00 | 1.07 | 0.69 | 76 | 1020.6 |
| 20260507010948 | 7 | 0 | 6.4 | 12.9 | 0.00 | 1.09 | 0.69 | 76 | 1020.8 |
| 20260507010432 | 7 | 0 | 6.4 | 12.9 | 0.00 | 1.09 | 0.69 | 75 | 1020.8 |
| 20260507005930 | 7 | 0 | 6.4 | 12.9 | 0.00 | 1.09 | 0.69 | 75 | 1020.6 |
| 20260507005427 | 8 | 0 | 6.4 | 14.5 | 0.00 | 1.09 | 0.69 | 75 | 1020.4 |
| 20260507004901 | 8 | 0 | 6.4 | 19.3 | 0.00 | 1.12 | 0.69 | 74 | 1020.3 |
| 20260507004342 | 8 | 0 | 8.0 | 19.3 | 0.00 | 1.12 | 0.69 | 75 | 1020.4 |
| 20260507003819 | 8 | 0 | 8.0 | 14.5 | 0.00 | 1.12 | 0.69 | 76 | 1020.3 |
| 20260507003300 | 8 | 0 | 8.0 | 14.5 | 0.00 | 1.12 | 0.69 | 77 | 1020.3 |
| 20260507002737 | 8 | 0 | 6.4 | 14.5 | 0.00 | 1.12 | 0.69 | 78 | 1020.6 |
| 20260507002228 | 7 | 0 | 8.0 | 14.5 | 0.00 | 1.12 | 0.69 | 80 | 1020.8 |
| 20260507001725 | 7 | 0 | 6.4 | 12.9 | 0.00 | 1.12 | 0.69 | 80 | 1020.9 |
| 20260507001224 | 7 | 0 | 4.8 | 12.9 | 0.00 | 1.14 | 0.69 | 81 | 1020.9 |
| 20260507000740 | 7 | 0 | 6.4 | 14.5 | 0.00 | 1.14 | 0.69 | 81 | 1020.9 |
| 20260507000223 | 7 | 0 | 8.0 | 16.1 | 0.00 | 1.14 | 0.69 | 81 | 1020.6 |
| 20260506235725 | 7 | 0 | 8.0 | 16.1 | 0.00 | 1.14 | 0.69 | 81 | 1020.8 |
| 20260506235220 | 7 | 0 | 6.4 | 14.5 | 0.00 | 1.14 | 0.69 | 82 | 1020.6 |
| 20260506234715 | 7 | 0 | 8.0 | 16.1 | 0.00 | 1.14 | 0.69 | 82 | 1020.9 |
| 20260506234412 | 7 | 0 | 8.0 | 16.1 | 0.00 | 1.14 | 0.69 | 81 | 1020.9 |
| 20260506234256 | 7 | 0 | 8.0 | 16.1 | 0.00 | 1.14 | 0.69 | 81 | 1020.9 |
| 20260506233918 | 7 | 0 | 8.0 | 14.5 | 0.00 | 1.14 | 0.69 | 78 | 1020.9 |
| 20260506233751 | 7 | 0 | 8.0 | 14.5 | 0.00 | 1.14 | 0.69 | 78 | 1020.9 |
| 20260506233123 | 7 | 0 | 8.0 | 14.5 | 0.00 | 1.14 | 0.69 | 77 | 1020.9 |
| 20260506232826 | 7 | 0 | 8.0 | 17.7 | 0.00 | 1.14 | 0.69 | 76 | 1020.9 |
| 20260506232708 | 7 | 0 | 8.0 | 17.7 | 0.00 | 1.14 | 0.69 | 76 | 1020.9 |
| 20260506232102 | 7 | 0 | 8.0 | 16.1 | 0.00 | 1.14 | 0.69 | 77 | 1020.9 |
| 20260506231602 | 7 | 0 | 9.7 | 16.1 | 0.00 | 1.14 | 0.69 | 77 | 1020.9 |
| 20260506231058 | 7 | 0 | 9.7 | 17.7 | 0.00 | 1.14 | 0.69 | 77 | 1020.9 |
| 20260506230836 | 8 | 0 | 8.0 | 17.7 | 0.00 | 1.14 | 0.69 | 77 | 1020.9 |
| 20260506230830 | 8 | 0 | 8.0 | 17.7 | 0.00 | 1.14 | 0.69 | 77 | 1020.9 |
| 20260506230425 | 8 | 0 | 8.0 | 17.7 | 0.00 | 1.14 | 0.69 | 77 | 1020.9 |
| 20260506225436 | 8 | 0 | 8.0 | 17.7 | 0.00 | 1.14 | 0.69 | 77 | 1020.9 |
| 20260506224910 | 8 | 0 | 8.0 | 17.7 | 0.00 | 1.14 | 0.69 | 77 | 1020.9 |
| 20260506224402 | 8 | 0 | 8.0 | 16.1 | 0.00 | 1.14 | 0.69 | 77 | 1020.9 |
| 20260506223835 | 8 | 0 | 6.4 | 16.1 | 0.00 | 1.14 | 0.69 | 75 | 1021.0 |
| 20260506223328 | 8 | 0 | 6.4 | 14.5 | 0.00 | 1.14 | 0.69 | 74 | 1020.9 |
| 20260506222758 | 8 | 0 | 8.0 | 16.1 | 0.00 | 1.14 | 0.69 | 73 | 1020.9 |
| 20260506222234 | 8 | 0 | 9.7 | 16.1 | 0.00 | 1.14 | 0.69 | 73 | 1020.8 |
| 20260506221737 | 8 | 0 | 9.7 | 20.9 | 0.00 | 1.14 | 0.69 | 72 | 1020.9 |
| 20260506221232 | 8 | 0 | 9.7 | 20.9 | 0.00 | 1.14 | 0.69 | 72 | 1020.9 |
| 20260506220728 | 9 | 0 | 8.0 | 19.3 | 0.00 | 1.14 | 0.69 | 70 | 1021.0 |
| 20260506220202 | 10 | 0 | 6.4 | 16.1 | 0.00 | 1.14 | 0.69 | 68 | 1021.0 |
| 20260506215917 | 10 | 0 | 6.4 | 16.1 | 0.00 | 1.14 | 0.69 | 67 | 1021.0 |
| 20260506215802 | 10 | 0 | 6.4 | 16.1 | 0.00 | 1.14 | 0.69 | 67 | 1021.0 |
| 20260506215133 | 10 | 0 | 6.4 | 16.1 | 0.00 | 1.14 | 0.69 | 65 | 1021.0 |
| 20260506214617 | 10 | 0 | 6.4 | 16.1 | 0.00 | 1.14 | 0.69 | 64 | 1021.1 |
| 20260506214339 | 10 | 0 | 4.8 | 12.9 | 0.00 | 1.17 | 0.69 | 63 | 1021.2 |
| 20260506214206 | 10 | 0 | 4.8 | 12.9 | 0.00 | 1.17 | 0.69 | 63 | 1021.2 |
| 20260506213539 | 10 | 0 | 4.8 | 14.5 | 0.00 | 1.17 | 0.69 | 65 | 1021.1 |
| 20260506213007 | 10 | 0 | 6.4 | 14.5 | 0.00 | 1.17 | 0.69 | 65 | 1021.2 |
| 20260506212443 | 10 | 0 | 4.8 | 14.5 | 0.00 | 1.17 | 0.69 | 67 | 1021.3 |
| 20260506211941 | 10 | 0 | 4.8 | 9.7 | 0.00 | 1.17 | 0.69 | 69 | 1021.4 |
| 20260506211437 | 10 | 0 | 4.8 | 17.7 | 0.00 | 1.17 | 0.69 | 68 | 1021.5 |
| 20260506210914 | 10 | 0 | 6.4 | 17.7 | 0.00 | 1.17 | 0.69 | 70 | 1021.5 |
| 20260506210406 | 10 | 0 | 6.4 | 16.1 | 0.00 | 1.17 | 0.69 | 67 | 1021.6 |
| 20260506205844 | 10 | 0 | 4.8 | 14.5 | 0.00 | 1.17 | 0.69 | 69 | 1021.6 |
| 20260506205341 | 10 | 0 | 4.8 | 12.9 | 0.00 | 1.17 | 0.69 | 70 | 1021.5 |
| 20260506204817 | 9 | 0 | 4.8 | 12.9 | 0.00 | 1.17 | 0.69 | 71 | 1021.6 |
| 20260506204541 | 9 | 0 | 4.8 | 12.9 | 0.00 | 1.17 | 0.69 | 73 | 1021.6 |
| 20260506204415 | 9 | 0 | 4.8 | 12.9 | 0.00 | 1.17 | 0.69 | 73 | 1021.6 |
| 20260506203805 | 9 | 0 | 4.8 | 12.9 | 0.00 | 1.17 | 0.69 | 71 | 1021.6 |
| 20260506203240 | 9 | 0 | 4.8 | 8.0 | 0.00 | 1.17 | 0.69 | 72 | 1021.7 |
| 20260506202711 | 9 | 0 | 4.8 | 6.4 | 0.00 | 1.17 | 0.69 | 73 | 1021.7 |
| 20260506202529 | 9 | 0 | 4.8 | 12.9 | 0.00 | 1.17 | 0.69 | 76 | 1021.9 |
| 20260506201704 | 8 | 0 | 4.8 | 12.9 | 0.00 | 1.17 | 0.69 | 78 | 1021.7 |
| 20260506201146 | 8 | 0 | 4.8 | 12.9 | 0.00 | 1.17 | 0.69 | 80 | 1021.7 |
| 20260506200844 | 8 | 0 | 4.8 | 12.9 | 0.00 | 1.17 | 0.69 | 84 | 1021.7 |
| 20260506200725 | 8 | 0 | 4.8 | 12.9 | 0.00 | 1.17 | 0.69 | 84 | 1021.7 |
| 20260506200107 | 7 | 0 | 3.2 | 9.7 | 0.00 | 1.17 | 0.69 | 85 | 1021.7 |
| 20260506195603 | 7 | 0 | 3.2 | 8.0 | 0.00 | 1.17 | 0.69 | 85 | 1021.9 |
| 20260506195101 | 6 | 0 | 4.8 | 8.0 | 0.00 | 1.17 | 0.69 | 85 | 1022.0 |
| 20260506194556 | 6 | 0 | 4.8 | 8.0 | 0.00 | 1.17 | 0.69 | 84 | 1022.1 |
| 20260506194031 | 6 | 0 | 4.8 | 9.7 | 0.00 | 1.17 | 0.69 | 85 | 1022.1 |
| 20260506193510 | 6 | 0 | 4.8 | 6.4 | 0.00 | 1.17 | 0.69 | 86 | 1022.1 |
| 20260506192958 | 6 | 0 | 4.8 | 8.0 | 0.00 | 1.17 | 0.69 | 85 | 1022.1 |
| 20260506192456 | 6 | 0 | 6.4 | 9.7 | 0.00 | 1.17 | 0.69 | 84 | 1022.1 |
| 20260506191952 | 6 | 0 | 4.8 | 9.7 | 0.00 | 1.17 | 0.69 | 85 | 1022.0 |
| 20260506191425 | 7 | 0 | 3.2 | 9.7 | 0.00 | 1.17 | 0.69 | 84 | 1022.1 |
| 20260506190920 | 7 | 0 | 3.2 | 9.7 | 0.00 | 1.17 | 0.69 | 84 | 1022.1 |
| 20260506190407 | 7 | 0 | 3.2 | 9.7 | 0.00 | 1.17 | 0.69 | 83 | 1022.1 |
| 20260506190114 | 7 | 0 | 1.6 | 8.0 | 0.00 | 1.17 | 0.69 | 81 | 1022.2 |
| 20260506185955 | 7 | 0 | 1.6 | 8.0 | 0.00 | 1.17 | 0.69 | 81 | 1022.2 |
| 20260506185324 | 7 | 0 | 0.0 | 1.6 | 0.00 | 1.17 | 0.69 | 82 | 1022.2 |
| 20260506184759 | 7 | 0 | 0.0 | 1.6 | 0.00 | 1.17 | 0.69 | 85 | 1022.2 |
| 20260506184253 | 7 | 0 | 0.0 | 1.6 | 0.00 | 1.17 | 0.69 | 85 | 1022.2 |
| 20260506184006 | 6 | 0 | 0.0 | 3.2 | 0.00 | 1.17 | 0.69 | 85 | 1022.2 |
| 20260506183842 | 6 | 0 | 0.0 | 3.2 | 0.00 | 1.17 | 0.69 | 85 | 1022.2 |
| 20260506183212 | 6 | 0 | 1.6 | 3.2 | 0.00 | 1.17 | 0.69 | 84 | 1022.3 |
| 20260506182932 | 6 | 0 | 1.6 | 3.2 | 0.00 | 1.17 | 0.69 | 84 | 1022.3 |
| 20260506182816 | 6 | 0 | 1.6 | 3.2 | 0.00 | 1.17 | 0.69 | 84 | 1022.3 |
| 20260506182146 | 6 | 0 | 1.6 | 4.8 | 0.00 | 1.17 | 0.69 | 84 | 1022.3 |
| 20260506181620 | 6 | 0 | 3.2 | 6.4 | 0.00 | 1.17 | 0.69 | 84 | 1022.4 |
| 20260506181426 | 6 | 0 | 1.6 | 6.4 | 0.00 | 1.17 | 0.69 | 85 | 1022.4 |
| 20260506180606 | 6 | 0 | 1.6 | 3.2 | 0.00 | 1.17 | 0.69 | 85 | 1022.5 |
| 20260506180055 | 6 | 0 | 1.6 | 4.8 | 0.00 | 1.17 | 0.69 | 84 | 1022.4 |
| 20260506175540 | 6 | 0 | 1.6 | 4.8 | 0.00 | 1.17 | 0.69 | 85 | 1022.5 |
| 20260506175013 | 6 | 0 | 0.0 | 4.8 | 0.00 | 1.17 | 0.69 | 87 | 1022.5 |
| 20260506174452 | 6 | 0 | 0.0 | 3.2 | 0.00 | 1.17 | 0.69 | 87 | 1022.5 |
| 20260506173953 | 6 | 0 | 1.6 | 3.2 | 0.00 | 1.17 | 0.69 | 88 | 1022.6 |
| 20260506173437 | 6 | 0 | 1.6 | 6.4 | 0.00 | 1.17 | 0.69 | 87 | 1022.7 |
| 20260506172929 | 6 | 0 | 1.6 | 6.4 | 0.00 | 1.17 | 0.69 | 87 | 1022.6 |
| 20260506172429 | 6 | 0 | 1.6 | 6.4 | 0.00 | 1.17 | 0.69 | 88 | 1022.5 |
| 20260506172147 | 6 | 0 | 3.2 | 6.4 | 0.00 | 1.17 | 0.69 | 87 | 1022.6 |
| 20260506172031 | 6 | 0 | 3.2 | 6.4 | 0.00 | 1.17 | 0.69 | 87 | 1022.6 |
| 20260506171425 | 6 | 0 | 1.6 | 6.4 | 0.00 | 1.17 | 0.69 | 89 | 1022.5 |
| 20260506170905 | 6 | 0 | 3.2 | 6.4 | 0.00 | 1.17 | 0.69 | 89 | 1022.5 |
| 20260506170406 | 5 | 0 | 3.2 | 8.0 | 0.00 | 1.17 | 0.69 | 89 | 1022.6 |
| 20260506165845 | 5 | 0 | 3.2 | 8.0 | 0.00 | 1.17 | 0.69 | 90 | 1022.6 |
| 20260506165326 | 5 | 0 | 3.2 | 9.7 | 0.00 | 1.17 | 0.69 | 90 | 1022.6 |
| 20260506165034 | 5 | 0 | 3.2 | 9.7 | 0.00 | 1.17 | 0.69 | 90 | 1022.6 |
| 20260506164943 | 5 | 0 | 3.2 | 8.0 | 0.00 | 1.17 | 0.69 | 91 | 1022.6 |
| 20260506164911 | 5 | 0 | 3.2 | 9.7 | 0.00 | 1.17 | 0.69 | 90 | 1022.6 |
| 20260506164409 | 5 | 0 | 3.2 | 8.0 | 0.00 | 1.17 | 0.69 | 91 | 1022.6 |
| 20260506163758 | 5 | 0 | 4.8 | 8.0 | 0.00 | 1.17 | 0.69 | 90 | 1022.6 |
| 20260506163259 | 5 | 0 | 3.2 | 9.7 | 0.00 | 1.17 | 0.69 | 91 | 1022.4 |
| 20260506162757 | 5 | 0 | 3.2 | 9.7 | 0.00 | 1.17 | 0.69 | 91 | 1022.4 |
| 20260506162258 | 5 | 0 | 3.2 | 8.0 | 0.00 | 1.17 | 0.69 | 91 | 1022.3 |
| 20260506161733 | 5 | 0 | 1.6 | 6.4 | 0.00 | 1.17 | 0.69 | 92 | 1022.2 |
| 20260506161210 | 5 | 0 | 1.6 | 4.8 | 0.00 | 1.17 | 0.69 | 92 | 1022.1 |
| 20260506160700 | 5 | 0 | 1.6 | 6.4 | 0.00 | 1.17 | 0.69 | 93 | 1022.1 |
| 20260506160138 | 5 | 0 | 1.6 | 6.4 | 0.00 | 1.17 | 0.69 | 93 | 1022.0 |
| 20260506155601 | 5 | 0 | 1.6 | 4.8 | 0.00 | 1.17 | 0.69 | 93 | 1021.9 |
| 20260506155036 | 5 | 0 | 1.6 | 4.8 | 0.00 | 1.17 | 0.69 | 93 | 1021.7 |
| 20260506154537 | 5 | 0 | 1.6 | 6.4 | 0.00 | 1.17 | 0.69 | 93 | 1021.6 |
| 20260506154301 | 5 | 0 | 1.6 | 6.4 | 0.00 | 1.17 | 0.69 | 93 | 1021.6 |
| 20260506154137 | 5 | 0 | 1.6 | 6.4 | 0.00 | 1.17 | 0.69 | 93 | 1021.6 |
| 20260506153534 | 5 | 0 | 4.8 | 9.7 | 0.00 | 1.17 | 0.69 | 93 | 1021.5 |
| 20260506153512 | 5 | 0 | 3.2 | 8.0 | 0.00 | 1.17 | 0.69 | 94 | 1021.6 |
| 20260506153420 | 5 | 0 | 4.8 | 9.7 | 0.00 | 1.17 | 0.69 | 93 | 1021.5 |
| 20260506152424 | 4 | 0 | 3.2 | 9.7 | 0.00 | 1.17 | 0.69 | 94 | 1021.5 |
| 20260506151903 | 4 | 0 | 3.2 | 8.0 | 0.03 | 1.17 | 0.69 | 94 | 1021.5 |
| 20260506151337 | 4 | 0 | 3.2 | 9.7 | 0.03 | 1.17 | 0.69 | 94 | 1021.6 |
| 20260506150819 | 3 | 0 | 3.2 | 8.0 | 0.03 | 1.17 | 0.69 | 94 | 1021.5 |
| 20260506150245 | 3 | 0 | 3.2 | 9.7 | 0.03 | 1.17 | 0.69 | 93 | 1021.5 |
| 20260506145740 | 3 | 0 | 3.2 | 9.7 | 0.03 | 1.17 | 0.69 | 94 | 1021.5 |
| 20260506145216 | 3 | 0 | 3.2 | 9.7 | 0.03 | 1.17 | 0.69 | 94 | 1021.5 |
| 20260506144650 | 3 | 0 | 1.6 | 6.4 | 0.03 | 1.17 | 0.69 | 94 | 1021.6 |
| 20260506144150 | 3 | 0 | 1.6 | 4.8 | 0.05 | 1.17 | 0.69 | 94 | 1021.6 |
| 20260506143644 | 3 | 0 | 1.6 | 4.8 | 0.05 | 1.17 | 0.69 | 93 | 1021.6 |
| 20260506143359 | 2 | 0 | 0.0 | 1.6 | 0.05 | 1.17 | 0.69 | 93 | 1021.6 |
| 20260506143246 | 2 | 0 | 0.0 | 1.6 | 0.05 | 1.17 | 0.69 | 93 | 1021.6 |
| 20260506142614 | 2 | 0 | 0.0 | 1.6 | 0.08 | 1.17 | 0.69 | 94 | 1021.7 |
| 20260506142048 | 2 | 0 | 0.0 | 1.6 | 0.05 | 1.14 | 0.69 | 94 | 1021.7 |
| 20260506141813 | 2 | 0 | 0.0 | 1.6 | 0.08 | 1.14 | 0.66 | 94 | 1021.7 |
| 20260506141651 | 2 | 0 | 0.0 | 1.6 | 0.08 | 1.14 | 0.66 | 94 | 1021.7 |
| 20260506141024 | 2 | 0 | 0.0 | 1.6 | 0.08 | 1.14 | 0.66 | 94 | 1021.9 |
| 20260506140454 | 2 | 0 | 0.0 | 3.2 | 0.08 | 1.14 | 0.66 | 93 | 1021.9 |
| 20260506135927 | 2 | 0 | 0.0 | 3.2 | 0.08 | 1.14 | 0.66 | 94 | 1021.7 |
| 20260506135402 | 2 | 0 | 0.0 | 0.0 | 0.08 | 1.14 | 0.66 | 94 | 1021.6 |
| 20260506134835 | 2 | 0 | 0.0 | 0.0 | 0.08 | 1.14 | 0.66 | 93 | 1021.6 |
| 20260506134308 | 2 | 0 | 0.0 | 0.0 | 0.05 | 1.12 | 0.64 | 93 | 1021.5 |
| 20260506133805 | 2 | 0 | 0.0 | 0.0 | 0.08 | 1.12 | 0.64 | 94 | 1021.5 |
| 20260506133303 | 2 | 0 | 0.0 | 0.0 | 0.08 | 1.12 | 0.64 | 94 | 1021.6 |
| 20260506132759 | 2 | 0 | 0.0 | 0.0 | 0.05 | 1.09 | 0.61 | 94 | 1021.5 |
| 20260506132255 | 2 | 0 | 0.0 | 1.6 | 0.08 | 1.09 | 0.61 | 93 | 1021.5 |
| 20260506131745 | 2 | 0 | 0.0 | 0.0 | 0.08 | 1.09 | 0.61 | 93 | 1021.5 |
| 20260506131248 | 2 | 0 | 0.0 | 1.6 | 0.05 | 1.07 | 0.58 | 93 | 1021.4 |
| 20260506130715 | 2 | 0 | 0.0 | 1.6 | 0.08 | 1.07 | 0.58 | 93 | 1021.3 |
| 20260506130213 | 2 | 0 | 0.0 | 1.6 | 0.08 | 1.07 | 0.58 | 93 | 1021.2 |
| 20260506125708 | 2 | 0 | 0.0 | 1.6 | 0.08 | 1.07 | 0.58 | 93 | 1021.2 |
| 20260506125638 | 2 | 0 | 0.0 | 1.6 | 0.10 | 1.07 | 0.58 | 93 | 1021.2 |
| 20260506125247 | 2 | 0 | 0.0 | 1.6 | 0.10 | 1.07 | 0.58 | 93 | 1021.2 |
| 20260506124618 | 2 | 0 | 0.0 | 3.2 | 0.10 | 1.07 | 0.58 | 93 | 1021.0 |
| 20260506124113 | 2 | 0 | 0.0 | 3.2 | 0.10 | 1.04 | 0.56 | 93 | 1021.0 |
| 20260506123821 | 1 | 0 | 0.0 | 3.2 | 0.10 | 1.04 | 0.56 | 93 | 1021.0 |
| 20260506123651 | 1 | 0 | 0.0 | 3.2 | 0.10 | 1.04 | 0.56 | 93 | 1021.0 |
| 20260506123046 | 1 | 0 | 0.0 | 3.2 | 0.10 | 1.04 | 0.56 | 93 | 1020.8 |
| 20260506122521 | 2 | 0 | 0.0 | 3.2 | 0.10 | 1.02 | 0.53 | 93 | 1020.8 |
| 20260506122019 | 2 | 0 | 0.0 | 4.8 | 0.10 | 1.02 | 0.53 | 93 | 1020.8 |
| 20260506121450 | 2 | 0 | 0.0 | 4.8 | 0.13 | 1.02 | 0.53 | 93 | 1020.6 |
| 20260506120947 | 2 | 0 | 0.0 | 3.2 | 0.10 | 0.99 | 0.51 | 93 | 1020.5 |
| 20260506120429 | 2 | 0 | 0.0 | 3.2 | 0.10 | 0.99 | 0.51 | 93 | 1020.5 |
| 20260506115938 | 2 | 0 | 1.6 | 3.2 | 0.13 | 0.99 | 0.51 | 93 | 1020.5 |
| 20260506115741 | 2 | 0 | 1.6 | 6.4 | 0.10 | 0.97 | 0.48 | 93 | 1020.5 |
| 20260506114923 | 2 | 0 | 0.0 | 6.4 | 0.13 | 0.97 | 0.48 | 93 | 1020.5 |